Time,TemperatureF,DewpointF,PressureIn,WindDirection,WindDirectionDegrees,WindSpeedMPH,WindSpeedGustMPH,Humidity,HourlyPrecipIn,Conditions,Clouds,dailyrainin,SoftwareType,DateUTC
2013-11-28 00:01:00,29.5,14.5,30.16,SW,225,9.4,13.0,53,0.00,,,0.00,WUHU216HW,2013-11-28 06:01:00,
2013-11-28 00:06:00,29.5,14.5,30.16,South,180,9.2,13.0,53,0.00,,,0.00,WUHU216HW,2013-11-28 06:06:00,
2013-11-28 00:11:00,29.5,14.5,30.16,SSW,203,5.8,10.1,53,0.00,,,0.00,WUHU216HW,2013-11-28 06:11:00,
2013-11-28 00:16:00,29.5,14.5,30.16,SW,225,8.9,12.1,53,0.00,,,0.00,WUHU216HW,2013-11-28 06:16:00,
2013-11-28 00:21:00,29.5,14.9,30.16,South,180,4.5,12.1,54,0.00,,,0.00,WUHU216HW,2013-11-28 06:21:00,
2013-11-28 00:26:00,29.5,14.9,30.16,SSW,203,7.6,14.1,54,0.00,,,0.00,WUHU216HW,2013-11-28 06:26:00,
2013-11-28 00:31:00,29.5,14.9,30.16,SW,225,4.9,14.1,54,0.00,,,0.00,WUHU216HW,2013-11-28 06:31:00,
2013-11-28 00:36:00,29.3,14.7,30.16,SW,225,8.7,10.1,54,0.00,,,0.00,WUHU216HW,2013-11-28 06:36:00,
2013-11-28 00:41:00,29.3,14.7,30.16,SW,225,6.9,10.3,54,0.00,,,0.00,WUHU216HW,2013-11-28 06:41:00,
2013-11-28 00:46:00,29.2,14.9,30.15,SSW,203,6.3,12.5,55,0.00,,,0.00,WUHU216HW,2013-11-28 06:46:00,
2013-11-28 00:51:00,29.2,14.9,30.15,SSW,203,8.5,12.5,55,0.00,,,0.00,WUHU216HW,2013-11-28 06:51:00,
2013-11-28 00:56:00,29.2,14.9,30.15,South,180,4.7,11.6,55,0.00,,,0.00,WUHU216HW,2013-11-28 06:56:00,
2013-11-28 01:01:00,29.2,14.9,30.16,SSW,203,8.5,12.5,55,0.00,,,0.00,WUHU216HW,2013-11-28 07:01:00,
2013-11-28 01:06:00,29.0,15.2,30.16,South,180,5.4,12.5,56,0.00,,,0.00,WUHU216HW,2013-11-28 07:06:00,
2013-11-28 01:11:00,29.0,15.2,30.16,SSW,203,6.5,11.4,56,0.00,,,0.00,WUHU216HW,2013-11-28 07:11:00,
2013-11-28 01:16:00,28.8,15.5,30.15,SW,225,6.9,11.4,57,0.00,,,0.00,WUHU216HW,2013-11-28 07:16:00,
2013-11-28 01:21:00,28.6,15.3,30.15,SW,225,7.8,12.1,57,0.00,,,0.00,WUHU216HW,2013-11-28 07:21:00,
2013-11-28 01:26:00,28.6,15.3,30.15,SSW,203,7.2,12.1,57,0.00,,,0.00,WUHU216HW,2013-11-28 07:26:00,
2013-11-28 01:31:00,28.4,15.1,30.15,SSW,203,7.6,10.7,57,0.00,,,0.00,WUHU216HW,2013-11-28 07:31:00,
2013-11-28 01:36:00,28.4,15.6,30.16,WSW,248,6.3,10.7,58,0.00,,,0.00,WUHU216HW,2013-11-28 07:36:00,
2013-11-28 01:41:00,28.4,15.6,30.16,SW,225,7.6,10.5,58,0.00,,,0.00,WUHU216HW,2013-11-28 07:41:00,
2013-11-28 01:46:00,28.4,15.6,30.16,West,270,6.3,9.8,58,0.00,,,0.00,WUHU216HW,2013-11-28 07:46:00,
2013-11-28 01:51:00,28.3,15.8,30.16,SW,225,5.4,9.8,59,0.00,,,0.00,WUHU216HW,2013-11-28 07:51:00,
2013-11-28 01:56:00,28.3,15.8,30.16,SW,225,5.4,8.7,59,0.00,,,0.00,WUHU216HW,2013-11-28 07:56:00,
2013-11-28 02:01:00,28.1,15.6,30.16,WSW,248,4.0,9.2,59,0.00,,,0.00,WUHU216HW,2013-11-28 08:01:00,
2013-11-28 02:06:00,28.1,15.6,30.16,SSW,203,3.4,9.2,59,0.00,,,0.00,WUHU216HW,2013-11-28 08:06:00,
2013-11-28 02:11:00,28.1,15.6,30.17,SSW,203,4.7,7.6,59,0.00,,,0.00,WUHU216HW,2013-11-28 08:11:00,
2013-11-28 02:16:00,27.7,15.7,30.17,SSW,203,4.0,6.3,60,0.00,,,0.00,WUHU216HW,2013-11-28 08:16:00,
2013-11-28 02:21:00,27.7,15.7,30.17,WSW,248,3.1,6.3,60,0.00,,,0.00,WUHU216HW,2013-11-28 08:21:00,
2013-11-28 02:26:00,27.7,15.7,30.17,NNW,338,4.0,6.3,60,0.00,,,0.00,WUHU216HW,2013-11-28 08:26:00,
2013-11-28 02:31:00,27.5,15.5,30.17,SSW,203,2.5,7.6,60,0.00,,,0.00,WUHU216HW,2013-11-28 08:31:00,
2013-11-28 02:36:00,27.5,15.8,30.17,SW,225,5.6,7.6,61,0.00,,,0.00,WUHU216HW,2013-11-28 08:36:00,
2013-11-28 02:41:00,27.4,15.7,30.17,SW,225,4.0,7.6,61,0.00,,,0.00,WUHU216HW,2013-11-28 08:41:00,
2013-11-28 02:46:00,27.4,15.7,30.17,WSW,248,3.6,7.6,61,0.00,,,0.00,WUHU216HW,2013-11-28 08:46:00,
2013-11-28 02:51:00,27.2,15.8,30.17,SSW,203,4.5,6.0,62,0.00,,,0.00,WUHU216HW,2013-11-28 08:51:00,
2013-11-28 02:56:00,27.0,15.7,30.17,SW,225,4.7,5.1,62,0.00,,,0.00,WUHU216HW,2013-11-28 08:56:00,
2013-11-28 03:01:00,26.8,15.5,30.17,SW,225,5.6,6.3,62,0.00,,,0.00,WUHU216HW,2013-11-28 09:01:00,
2013-11-28 03:06:00,26.6,15.3,30.17,SSW,203,5.4,6.3,62,0.00,,,0.00,WUHU216HW,2013-11-28 09:06:00,
2013-11-28 03:11:00,26.6,15.3,30.17,SW,225,3.8,6.0,62,0.00,,,0.00,WUHU216HW,2013-11-28 09:11:00,
2013-11-28 03:16:00,26.6,15.3,30.17,WSW,248,2.9,5.8,62,0.00,,,0.00,WUHU216HW,2013-11-28 09:16:00,
2013-11-28 03:21:00,26.5,15.5,30.17,WSW,248,3.4,5.8,63,0.00,,,0.00,WUHU216HW,2013-11-28 09:21:00,
2013-11-28 03:26:00,26.3,15.3,30.17,SW,225,2.5,4.7,63,0.00,,,0.00,WUHU216HW,2013-11-28 09:26:00,
2013-11-28 03:31:00,26.3,15.3,30.17,West,270,1.3,4.7,63,0.00,,,0.00,WUHU216HW,2013-11-28 09:31:00,
2013-11-28 03:36:00,26.1,15.1,30.17,WNW,293,1.3,3.4,63,0.00,,,0.00,WUHU216HW,2013-11-28 09:36:00,
2013-11-28 03:41:00,26.1,15.1,30.17,SW,225,1.8,3.4,63,0.00,,,0.00,WUHU216HW,2013-11-28 09:41:00,
2013-11-28 03:46:00,26.1,15.1,30.17,SW,225,2.5,4.0,63,0.00,,,0.00,WUHU216HW,2013-11-28 09:46:00,
2013-11-28 03:51:00,26.1,15.5,30.17,SW,225,0.7,4.0,64,0.00,,,0.00,WUHU216HW,2013-11-28 09:51:00,
2013-11-28 03:56:00,25.9,15.7,30.17,WSW,248,1.1,4.0,65,0.00,,,0.00,WUHU216HW,2013-11-28 09:56:00,
2013-11-28 04:01:00,25.9,15.7,30.17,SSW,203,1.6,4.0,65,0.00,,,0.00,WUHU216HW,2013-11-28 10:01:00,
2013-11-28 04:06:00,25.9,15.7,30.17,SW,225,2.2,4.0,65,0.00,,,0.00,WUHU216HW,2013-11-28 10:06:00,
2013-11-28 04:11:00,25.6,15.4,30.17,WSW,248,0.4,2.5,65,0.00,,,0.00,WUHU216HW,2013-11-28 10:11:00,
2013-11-28 04:16:00,25.7,15.2,30.17,SSW,203,1.1,2.5,64,0.00,,,0.00,WUHU216HW,2013-11-28 10:16:00,
2013-11-28 04:21:00,25.7,15.6,30.17,SW,225,2.5,2.5,65,0.00,,,0.00,WUHU216HW,2013-11-28 10:21:00,
2013-11-28 04:26:00,25.6,15.7,30.18,WSW,248,1.8,2.5,66,0.00,,,0.00,WUHU216HW,2013-11-28 10:26:00,
2013-11-28 04:31:00,25.6,15.7,30.17,SW,225,1.1,2.5,66,0.00,,,0.00,WUHU216HW,2013-11-28 10:31:00,
2013-11-28 04:36:00,25.6,16.0,30.18,WSW,248,3.8,4.0,67,0.00,,,0.00,WUHU216HW,2013-11-28 10:36:00,
2013-11-28 04:41:00,25.6,16.0,30.17,West,270,4.0,5.1,67,0.00,,,0.00,WUHU216HW,2013-11-28 10:41:00,
2013-11-28 04:46:00,25.6,16.0,30.18,WSW,248,4.5,5.1,67,0.00,,,0.00,WUHU216HW,2013-11-28 10:46:00,
2013-11-28 04:51:00,25.6,16.4,30.18,West,270,2.9,5.1,68,0.00,,,0.00,WUHU216HW,2013-11-28 10:51:00,
2013-11-28 04:56:00,25.6,16.4,30.18,WNW,293,3.1,5.1,68,0.00,,,0.00,WUHU216HW,2013-11-28 10:56:00,
2013-11-28 05:01:00,25.6,16.4,30.18,West,270,2.5,4.0,68,0.00,,,0.00,WUHU216HW,2013-11-28 11:01:00,
2013-11-28 05:06:00,25.6,16.4,30.18,West,270,2.5,4.0,68,0.00,,,0.00,WUHU216HW,2013-11-28 11:06:00,
2013-11-28 05:11:00,25.6,16.4,30.18,West,270,5.1,5.1,68,0.00,,,0.00,WUHU216HW,2013-11-28 11:11:00,
2013-11-28 05:16:00,25.6,16.4,30.19,WSW,248,3.4,5.1,68,0.00,,,0.00,WUHU216HW,2013-11-28 11:16:00,
2013-11-28 05:21:00,25.6,16.7,30.19,WSW,248,2.2,5.1,69,0.00,,,0.00,WUHU216HW,2013-11-28 11:21:00,
2013-11-28 05:26:00,25.6,16.4,30.19,SW,225,2.5,3.6,68,0.00,,,0.00,WUHU216HW,2013-11-28 11:26:00,
2013-11-28 05:31:00,25.6,16.4,30.20,WNW,293,1.6,3.6,68,0.00,,,0.00,WUHU216HW,2013-11-28 11:31:00,
2013-11-28 05:36:00,25.6,16.4,30.20,WSW,248,1.3,3.4,68,0.00,,,0.00,WUHU216HW,2013-11-28 11:36:00,
2013-11-28 05:41:00,25.4,16.6,30.20,WSW,248,3.4,3.6,69,0.00,,,0.00,WUHU216HW,2013-11-28 11:41:00,
2013-11-28 05:46:00,25.2,16.7,30.20,SW,225,1.6,3.6,70,0.00,,,0.00,WUHU216HW,2013-11-28 11:46:00,
2013-11-28 05:51:00,25.2,16.7,30.21,WNW,293,2.2,4.3,70,0.00,,,0.00,WUHU216HW,2013-11-28 11:51:00,
2013-11-28 05:56:00,25.2,16.7,30.21,West,270,4.7,5.4,70,0.00,,,0.00,WUHU216HW,2013-11-28 11:56:00,
2013-11-28 06:01:00,25.2,16.7,30.21,West,270,5.4,5.4,70,0.00,,,0.00,WUHU216HW,2013-11-28 12:01:00,
2013-11-28 06:06:00,25.2,17.1,30.21,West,270,3.4,5.4,71,0.00,,,0.00,WUHU216HW,2013-11-28 12:06:00,
2013-11-28 06:11:00,25.2,17.4,30.21,WNW,293,3.8,6.3,72,0.00,,,0.00,WUHU216HW,2013-11-28 12:11:00,
2013-11-28 06:16:00,25.2,17.4,30.22,WNW,293,5.1,6.3,72,0.00,,,0.00,WUHU216HW,2013-11-28 12:16:00,
2013-11-28 06:21:00,25.6,17.7,30.22,WNW,293,5.4,5.8,72,0.00,,,0.00,WUHU216HW,2013-11-28 12:21:00,
2013-11-28 06:26:00,25.6,17.7,30.22,WNW,293,4.5,6.9,72,0.00,,,0.00,WUHU216HW,2013-11-28 12:26:00,
2013-11-28 06:31:00,25.7,17.9,30.23,WNW,293,4.7,6.9,72,0.00,,,0.00,WUHU216HW,2013-11-28 12:31:00,
2013-11-28 06:36:00,25.7,17.6,30.23,WNW,293,4.0,5.1,71,0.00,,,0.00,WUHU216HW,2013-11-28 12:36:00,
2013-11-28 06:41:00,25.7,17.6,30.23,NW,315,3.8,4.7,71,0.00,,,0.00,WUHU216HW,2013-11-28 12:41:00,
2013-11-28 06:46:00,25.6,17.5,30.24,WNW,293,2.9,5.4,71,0.00,,,0.00,WUHU216HW,2013-11-28 12:46:00,
2013-11-28 06:51:00,25.6,17.5,30.24,NNW,338,3.4,5.4,71,0.00,,,0.00,WUHU216HW,2013-11-28 12:51:00,
2013-11-28 06:56:00,25.2,17.1,30.24,WNW,293,4.0,5.4,71,0.00,,,0.00,WUHU216HW,2013-11-28 12:56:00,
2013-11-28 07:01:00,25.0,17.2,30.24,WNW,293,4.3,4.7,72,0.00,,,0.00,WUHU216HW,2013-11-28 13:01:00,
2013-11-28 07:06:00,24.8,17.0,30.24,NW,315,4.0,5.1,72,0.00,,,0.00,WUHU216HW,2013-11-28 13:06:00,
2013-11-28 07:11:00,24.8,17.4,30.24,WNW,293,5.6,6.3,73,0.00,,,0.00,WUHU216HW,2013-11-28 13:11:00,
2013-11-28 07:16:00,24.8,17.4,30.25,WNW,293,4.7,6.3,73,0.00,,,0.00,WUHU216HW,2013-11-28 13:16:00,
2013-11-28 07:21:00,24.8,17.4,30.25,WNW,293,4.3,5.6,73,0.00,,,0.00,WUHU216HW,2013-11-28 13:21:00,
2013-11-28 07:26:00,24.8,17.6,30.26,WNW,293,4.5,5.4,74,0.00,,,0.00,WUHU216HW,2013-11-28 13:26:00,
2013-11-28 07:31:00,25.0,17.8,30.26,NW,315,4.7,5.6,74,0.00,,,0.00,WUHU216HW,2013-11-28 13:31:00,
2013-11-28 07:36:00,25.6,18.7,30.26,NW,315,5.4,6.3,75,0.00,,,0.00,WUHU216HW,2013-11-28 13:36:00,
2013-11-28 07:41:00,26.6,19.5,30.26,NW,315,4.9,6.3,74,0.00,,,0.00,WUHU216HW,2013-11-28 13:41:00,
2013-11-28 07:46:00,27.2,19.6,30.26,NW,315,5.4,5.8,73,0.00,,,0.00,WUHU216HW,2013-11-28 13:46:00,
2013-11-28 07:51:00,27.5,20.0,30.26,WNW,293,6.0,6.0,73,0.00,,,0.00,WUHU216HW,2013-11-28 13:51:00,
2013-11-28 07:56:00,28.6,20.8,30.27,NW,315,4.3,6.0,72,0.00,,,0.00,WUHU216HW,2013-11-28 13:56:00,
2013-11-28 08:01:00,29.2,21.0,30.27,NW,315,4.3,6.0,71,0.00,,,0.00,WUHU216HW,2013-11-28 14:01:00,
2013-11-28 08:06:00,29.5,21.2,30.28,NW,315,4.9,6.0,71,0.00,,,0.00,WUHU216HW,2013-11-28 14:06:00,
2013-11-28 08:11:00,30.8,22.1,30.28,NW,315,4.5,6.0,70,0.00,,,0.00,WUHU216HW,2013-11-28 14:11:00,
2013-11-28 08:16:00,31.3,21.6,30.28,NW,315,6.9,7.8,67,0.00,,,0.00,WUHU216HW,2013-11-28 14:16:00,
2013-11-28 08:21:00,31.7,21.6,30.28,NNW,338,7.6,9.8,66,0.00,,,0.00,WUHU216HW,2013-11-28 14:21:00,
2013-11-28 08:26:00,32.0,22.3,30.28,NW,315,6.5,9.8,67,0.00,,,0.00,WUHU216HW,2013-11-28 14:26:00,
2013-11-28 08:31:00,32.4,22.3,30.28,NW,315,7.8,8.1,66,0.00,,,0.00,WUHU216HW,2013-11-28 14:31:00,
2013-11-28 08:36:00,32.8,22.2,30.28,WNW,293,5.8,8.5,65,0.00,,,0.00,WUHU216HW,2013-11-28 14:36:00,
2013-11-28 08:41:00,32.8,22.2,30.29,NW,315,6.3,10.5,65,0.00,,,0.00,WUHU216HW,2013-11-28 14:41:00,
2013-11-28 08:46:00,32.9,22.4,30.29,WNW,293,7.4,10.5,65,0.00,,,0.00,WUHU216HW,2013-11-28 14:46:00,
2013-11-28 08:51:00,33.3,22.4,30.29,North,0,3.1,8.5,64,0.00,,,0.00,WUHU216HW,2013-11-28 14:51:00,
2013-11-28 08:56:00,33.8,22.9,30.30,NW,315,4.9,8.5,64,0.00,,,0.00,WUHU216HW,2013-11-28 14:56:00,
2013-11-28 09:01:00,34.2,22.5,30.30,NNW,338,4.3,9.8,62,0.00,,,0.00,WUHU216HW,2013-11-28 15:01:00,
2013-11-28 09:06:00,34.6,22.9,30.30,NNW,338,4.5,9.8,62,0.00,,,0.00,WUHU216HW,2013-11-28 15:06:00,
2013-11-28 09:11:00,35.3,23.2,30.30,NW,315,7.6,8.7,61,0.00,,,0.00,WUHU216HW,2013-11-28 15:11:00,
2013-11-28 09:16:00,35.8,23.4,30.30,NW,315,6.7,9.8,60,0.00,,,0.00,WUHU216HW,2013-11-28 15:16:00,
2013-11-28 09:21:00,36.4,23.1,30.31,NW,315,9.4,10.5,58,0.00,,,0.00,WUHU216HW,2013-11-28 15:21:00,
2013-11-28 09:26:00,36.4,23.1,30.30,WNW,293,4.3,10.7,58,0.00,,,0.00,WUHU216HW,2013-11-28 15:26:00,
2013-11-28 09:31:00,37.3,23.4,30.31,NNW,338,6.0,10.7,57,0.00,,,0.00,WUHU216HW,2013-11-28 15:31:00,
2013-11-28 09:36:00,37.8,23.1,30.31,North,0,3.6,11.0,55,0.00,,,0.00,WUHU216HW,2013-11-28 15:36:00,
2013-11-28 09:41:00,38.5,23.2,30.31,NNW,338,6.0,11.0,54,0.00,,,0.00,WUHU216HW,2013-11-28 15:41:00,
2013-11-28 09:46:00,38.3,23.0,30.32,NNW,338,6.3,10.3,54,0.00,,,0.00,WUHU216HW,2013-11-28 15:46:00,
2013-11-28 09:51:00,38.5,23.2,30.32,North,0,8.3,10.5,54,0.00,,,0.00,WUHU216HW,2013-11-28 15:51:00,
2013-11-28 09:56:00,38.9,23.1,30.32,NW,315,8.1,12.1,53,0.00,,,0.00,WUHU216HW,2013-11-28 15:56:00,
2013-11-28 10:01:00,39.2,23.4,30.33,NW,315,4.7,12.1,53,0.00,,,0.00,WUHU216HW,2013-11-28 16:01:00,
2013-11-28 10:06:00,40.3,24.0,30.33,WNW,293,8.1,11.0,52,0.00,,,0.00,WUHU216HW,2013-11-28 16:06:00,
2013-11-28 10:11:00,40.9,23.6,30.34,NW,315,8.7,9.8,50,0.00,,,0.00,WUHU216HW,2013-11-28 16:11:00,
2013-11-28 10:16:00,41.4,24.1,30.34,NW,315,7.4,9.8,50,0.00,,,0.00,WUHU216HW,2013-11-28 16:16:00,
2013-11-28 10:21:00,42.3,24.5,30.34,North,0,4.7,9.6,49,0.00,,,0.00,WUHU216HW,2013-11-28 16:21:00,
2013-11-28 10:26:00,43.0,24.7,30.35,North,0,4.7,9.6,48,0.00,,,0.00,WUHU216HW,2013-11-28 16:26:00,
2013-11-28 10:31:00,43.7,24.8,30.35,NW,315,6.5,9.6,47,0.00,,,0.00,WUHU216HW,2013-11-28 16:31:00,
2013-11-28 10:36:00,42.7,23.8,30.35,North,0,5.1,7.8,47,0.00,,,0.00,WUHU216HW,2013-11-28 16:36:00,
2013-11-28 10:41:00,42.5,23.6,30.35,NNW,338,5.4,9.2,47,0.00,,,0.00,WUHU216HW,2013-11-28 16:41:00,
2013-11-28 10:46:00,43.4,24.9,30.35,NNW,338,5.6,9.2,48,0.00,,,0.00,WUHU216HW,2013-11-28 16:46:00,
2013-11-28 10:51:00,44.3,23.6,30.35,NNW,338,5.8,10.1,44,0.00,,,0.00,WUHU216HW,2013-11-28 16:51:00,
2013-11-28 10:56:00,44.3,23.6,30.35,NNW,338,6.3,10.1,44,0.00,,,0.00,WUHU216HW,2013-11-28 16:56:00,
2013-11-28 11:01:00,44.6,23.9,30.36,NW,315,6.7,8.3,44,0.00,,,0.00,WUHU216HW,2013-11-28 17:01:00,
2013-11-28 11:06:00,45.0,24.3,30.35,NNW,338,5.1,8.7,44,0.00,,,0.00,WUHU216HW,2013-11-28 17:06:00,
2013-11-28 11:11:00,45.9,24.6,30.36,WNW,293,6.9,8.7,43,0.00,,,0.00,WUHU216HW,2013-11-28 17:11:00,
2013-11-28 11:16:00,45.9,24.0,30.36,North,0,8.3,9.8,42,0.00,,,0.00,WUHU216HW,2013-11-28 17:16:00,
2013-11-28 11:21:00,46.4,24.5,30.35,NW,315,6.5,9.8,42,0.00,,,0.00,WUHU216HW,2013-11-28 17:21:00,
2013-11-28 11:26:00,46.6,23.6,30.36,NNE,23,4.7,8.3,40,0.00,,,0.00,WUHU216HW,2013-11-28 17:26:00,
2013-11-28 11:31:00,47.2,24.6,30.36,NW,315,5.4,9.6,41,0.00,,,0.00,WUHU216HW,2013-11-28 17:31:00,
2013-11-28 11:36:00,47.7,24.6,30.36,NW,315,2.7,12.1,40,0.00,,,0.00,WUHU216HW,2013-11-28 17:36:00,
2013-11-28 11:41:00,47.0,23.2,30.36,North,0,4.5,12.1,39,0.00,,,0.00,WUHU216HW,2013-11-28 17:41:00,
2013-11-28 11:46:00,47.3,23.6,30.36,NW,315,6.9,12.1,39,0.00,,,0.00,WUHU216HW,2013-11-28 17:46:00,
2013-11-28 11:51:00,48.1,24.2,30.35,NNW,338,4.5,11.6,39,0.00,,,0.00,WUHU216HW,2013-11-28 17:51:00,
2013-11-28 11:56:00,48.8,23.5,30.36,NNW,338,8.9,8.9,37,0.00,,,0.00,WUHU216HW,2013-11-28 17:56:00,
2013-11-28 12:01:00,48.4,23.9,30.36,NNW,338,4.5,8.9,38,0.00,,,0.00,WUHU216HW,2013-11-28 18:01:00,
2013-11-28 12:06:00,49.0,24.3,30.36,NNW,338,5.4,8.9,38,0.00,,,0.00,WUHU216HW,2013-11-28 18:06:00,
2013-11-28 12:11:00,48.1,23.5,30.36,NNE,23,4.3,7.6,38,0.00,,,0.00,WUHU216HW,2013-11-28 18:11:00,
2013-11-28 12:16:00,47.3,22.9,30.36,NNW,338,5.6,9.4,38,0.00,,,0.00,WUHU216HW,2013-11-28 18:16:00,
2013-11-28 12:21:00,45.7,22.1,30.36,North,0,3.8,9.4,39,0.00,,,0.00,WUHU216HW,2013-11-28 18:21:00,
2013-11-28 12:26:00,45.7,22.8,30.36,North,0,7.4,11.6,40,0.00,,,0.00,WUHU216HW,2013-11-28 18:26:00,
2013-11-28 12:31:00,45.5,23.1,30.36,NW,315,5.6,11.6,41,0.00,,,0.00,WUHU216HW,2013-11-28 18:31:00,
2013-11-28 12:36:00,45.9,23.0,30.36,ESE,113,3.4,9.2,40,0.00,,,0.00,WUHU216HW,2013-11-28 18:36:00,
2013-11-28 12:41:00,46.1,22.4,30.36,NNW,338,7.4,11.4,39,0.00,,,0.00,WUHU216HW,2013-11-28 18:41:00,
2013-11-28 12:46:00,44.8,22.0,30.37,West,270,10.5,11.4,40,0.00,,,0.00,WUHU216HW,2013-11-28 18:46:00,
2013-11-28 12:51:00,44.5,22.1,30.37,NW,315,6.0,10.5,41,0.00,,,0.00,WUHU216HW,2013-11-28 18:51:00,
2013-11-28 12:56:00,44.6,22.9,30.36,East,90,3.6,8.5,42,0.00,,,0.00,WUHU216HW,2013-11-28 18:56:00,
2013-11-28 13:01:00,44.6,21.8,30.36,NW,315,6.7,7.4,40,0.00,,,0.00,WUHU216HW,2013-11-28 19:01:00,
2013-11-28 13:06:00,44.3,22.0,30.37,NNW,338,6.0,9.2,41,0.00,,,0.00,WUHU216HW,2013-11-28 19:06:00,
2013-11-28 13:11:00,44.8,23.1,30.37,WNW,293,5.6,9.2,42,0.00,,,0.00,WUHU216HW,2013-11-28 19:11:00,
2013-11-28 13:16:00,44.3,22.0,30.36,WNW,293,1.3,7.6,41,0.00,,,0.00,WUHU216HW,2013-11-28 19:16:00,
2013-11-28 13:21:00,43.7,22.1,30.36,NNW,338,4.7,9.4,42,0.00,,,0.00,WUHU216HW,2013-11-28 19:21:00,
2013-11-28 13:26:00,43.4,21.7,30.36,NNW,338,6.9,9.4,42,0.00,,,0.00,WUHU216HW,2013-11-28 19:26:00,
2013-11-28 13:31:00,42.8,21.8,30.37,NW,315,4.5,9.2,43,0.00,,,0.00,WUHU216HW,2013-11-28 19:31:00,
2013-11-28 13:36:00,42.8,21.8,30.36,NNW,338,4.0,9.2,43,0.00,,,0.00,WUHU216HW,2013-11-28 19:36:00,
2013-11-28 13:41:00,42.8,21.8,30.36,NNW,338,8.9,9.2,43,0.00,,,0.00,WUHU216HW,2013-11-28 19:41:00,
2013-11-28 13:46:00,42.8,21.8,30.37,North,0,2.0,8.9,43,0.00,,,0.00,WUHU216HW,2013-11-28 19:46:00,
2013-11-28 13:51:00,43.6,21.9,30.37,NW,315,7.4,8.9,42,0.00,,,0.00,WUHU216HW,2013-11-28 19:51:00,
2013-11-28 13:56:00,43.6,21.9,30.36,NNW,338,5.8,7.4,42,0.00,,,0.00,WUHU216HW,2013-11-28 19:56:00,
2013-11-28 14:01:00,43.4,22.2,30.37,NNW,338,2.9,9.4,43,0.00,,,0.00,WUHU216HW,2013-11-28 20:01:00,
2013-11-28 14:06:00,44.3,22.0,30.37,North,0,6.9,9.4,41,0.00,,,0.00,WUHU216HW,2013-11-28 20:06:00,
2013-11-28 14:11:00,44.6,22.3,30.37,NW,315,2.7,6.9,41,0.00,,,0.00,WUHU216HW,2013-11-28 20:11:00,
2013-11-28 14:16:00,45.0,22.7,30.37,NNW,338,4.0,6.9,41,0.00,,,0.00,WUHU216HW,2013-11-28 20:16:00,
2013-11-28 14:21:00,45.2,22.2,30.37,NNW,338,4.5,6.9,40,0.00,,,0.00,WUHU216HW,2013-11-28 20:21:00,
2013-11-28 14:26:00,44.5,21.6,30.37,NNW,338,4.3,9.6,40,0.00,,,0.00,WUHU216HW,2013-11-28 20:26:00,
2013-11-28 14:31:00,45.0,22.2,30.37,North,0,6.3,9.6,40,0.00,,,0.00,WUHU216HW,2013-11-28 20:31:00,
2013-11-28 14:36:00,45.0,22.2,30.38,NNW,338,6.3,7.6,40,0.00,,,0.00,WUHU216HW,2013-11-28 20:36:00,
2013-11-28 14:41:00,45.5,22.6,30.38,NE,45,4.0,7.6,40,0.00,,,0.00,WUHU216HW,2013-11-28 20:41:00,
2013-11-28 14:46:00,46.6,22.9,30.38,North,0,5.6,6.3,39,0.00,,,0.00,WUHU216HW,2013-11-28 20:46:00,
2013-11-28 14:51:00,47.3,22.9,30.38,North,0,5.6,7.4,38,0.00,,,0.00,WUHU216HW,2013-11-28 20:51:00,
2013-11-28 14:56:00,47.5,23.0,30.38,NNW,338,5.6,7.6,38,0.00,,,0.00,WUHU216HW,2013-11-28 20:56:00,
2013-11-28 15:01:00,48.1,23.5,30.39,NNE,23,5.4,7.6,38,0.00,,,0.00,WUHU216HW,2013-11-28 21:01:00,
2013-11-28 15:06:00,49.3,23.9,30.39,NNW,338,6.3,7.2,37,0.00,,,0.00,WUHU216HW,2013-11-28 21:06:00,
2013-11-28 15:11:00,49.7,23.6,30.39,NNW,338,4.9,6.3,36,0.00,,,0.00,WUHU216HW,2013-11-28 21:11:00,
2013-11-28 15:16:00,49.3,23.3,30.39,NNW,338,5.1,6.3,36,0.00,,,0.00,WUHU216HW,2013-11-28 21:16:00,
2013-11-28 15:21:00,49.5,23.4,30.39,NE,45,2.9,6.7,36,0.00,,,0.00,WUHU216HW,2013-11-28 21:21:00,
2013-11-28 15:26:00,50.0,24.0,30.40,NNW,338,2.5,6.7,36,0.00,,,0.00,WUHU216HW,2013-11-28 21:26:00,
2013-11-28 15:31:00,50.8,23.2,30.40,WNW,293,2.5,5.1,34,0.00,,,0.00,WUHU216HW,2013-11-28 21:31:00,
2013-11-28 15:36:00,51.1,22.9,30.40,NNW,338,5.6,6.9,33,0.00,,,0.00,WUHU216HW,2013-11-28 21:36:00,
2013-11-28 15:41:00,50.4,22.1,30.40,NNW,338,5.4,6.9,33,0.00,,,0.00,WUHU216HW,2013-11-28 21:41:00,
2013-11-28 15:46:00,50.4,22.9,30.41,North,0,7.6,7.6,34,0.00,,,0.00,WUHU216HW,2013-11-28 21:46:00,
2013-11-28 15:51:00,50.2,22.7,30.41,North,0,3.8,7.6,34,0.00,,,0.00,WUHU216HW,2013-11-28 21:51:00,
2013-11-28 15:56:00,50.0,22.5,30.41,North,0,4.5,7.6,34,0.00,,,0.00,WUHU216HW,2013-11-28 21:56:00,
2013-11-28 16:01:00,49.1,21.8,30.41,North,0,6.3,6.3,34,0.00,,,0.00,WUHU216HW,2013-11-28 22:01:00,
2013-11-28 16:06:00,49.0,23.0,30.41,North,0,4.7,6.3,36,0.00,,,0.00,WUHU216HW,2013-11-28 22:06:00,
2013-11-28 16:11:00,49.3,23.3,30.41,NW,315,4.0,5.1,36,0.00,,,0.00,WUHU216HW,2013-11-28 22:11:00,
2013-11-28 16:16:00,48.2,21.1,30.41,NNW,338,2.7,6.3,34,0.00,,,0.00,WUHU216HW,2013-11-28 22:16:00,
2013-11-28 16:21:00,46.1,19.7,30.41,NW,315,2.9,6.3,35,0.00,,,0.00,WUHU216HW,2013-11-28 22:21:00,
2013-11-28 16:26:00,44.6,19.8,30.42,North,0,1.8,5.8,37,0.00,,,0.00,WUHU216HW,2013-11-28 22:26:00,
2013-11-28 16:31:00,43.6,19.4,30.42,North,0,2.9,5.4,38,0.00,,,0.00,WUHU216HW,2013-11-28 22:31:00,
2013-11-28 16:36:00,42.5,18.6,30.42,NNW,338,3.4,3.4,38,0.00,,,0.00,WUHU216HW,2013-11-28 22:36:00,
2013-11-28 16:41:00,41.6,18.4,30.42,NNW,338,1.8,3.4,39,0.00,,,0.00,WUHU216HW,2013-11-28 22:41:00,
2013-11-28 16:46:00,41.0,18.5,30.42,NNE,23,0.7,3.4,40,0.00,,,0.00,WUHU216HW,2013-11-28 22:46:00,
2013-11-28 16:51:00,40.5,18.1,30.42,North,0,0.4,2.9,40,0.00,,,0.00,WUHU216HW,2013-11-28 22:51:00,
2013-11-28 16:56:00,39.8,18.5,30.43,NNE,23,0.2,2.9,42,0.00,,,0.00,WUHU216HW,2013-11-28 22:56:00,
2013-11-28 17:01:00,39.1,17.8,30.43,NNE,23,0.4,1.1,42,0.00,,,0.00,WUHU216HW,2013-11-28 23:01:00,
2013-11-28 17:06:00,38.3,17.6,30.43,North,0,0.7,1.1,43,0.00,,,0.00,WUHU216HW,2013-11-28 23:06:00,
2013-11-28 17:11:00,37.4,17.4,30.43,NNW,338,0.2,0.7,44,0.00,,,0.00,WUHU216HW,2013-11-28 23:11:00,
2013-11-28 17:16:00,36.9,17.5,30.43,NNW,338,0.0,0.7,45,0.00,,,0.00,WUHU216HW,2013-11-28 23:16:00,
2013-11-28 17:21:00,36.7,17.3,30.44,NNW,338,0.0,0.4,45,0.00,,,0.00,WUHU216HW,2013-11-28 23:21:00,
2013-11-28 17:26:00,36.4,16.9,30.44,North,0,0.2,0.4,45,0.00,,,0.00,WUHU216HW,2013-11-28 23:26:00,
2013-11-28 17:31:00,36.2,16.7,30.44,NW,315,0.7,0.7,45,0.00,,,0.00,WUHU216HW,2013-11-28 23:31:00,
2013-11-28 17:36:00,36.0,16.7,30.44,ESE,113,0.0,0.7,45,0.00,,,0.00,WUHU216HW,2013-11-28 23:36:00,
2013-11-28 17:41:00,35.6,16.8,30.44,NNW,338,0.2,0.7,46,0.00,,,0.00,WUHU216HW,2013-11-28 23:41:00,
2013-11-28 17:46:00,35.5,16.7,30.45,NNE,23,0.0,0.4,46,0.00,,,0.00,WUHU216HW,2013-11-28 23:46:00,
2013-11-28 17:51:00,35.3,16.5,30.44,North,0,0.0,0.4,46,0.00,,,0.00,WUHU216HW,2013-11-28 23:51:00,
2013-11-28 17:56:00,34.9,16.1,30.45,NNE,23,0.0,0.2,46,0.00,,,0.00,WUHU216HW,2013-11-28 23:56:00,
2013-11-28 18:01:00,34.7,16.5,30.45,NNE,23,0.4,0.9,47,0.00,,,0.00,WUHU216HW,2013-11-29 00:01:00,
2013-11-28 18:06:00,34.4,17.1,30.45,North,0,0.2,0.9,49,0.00,,,0.00,WUHU216HW,2013-11-29 00:06:00,
2013-11-28 18:11:00,33.7,16.9,30.46,North,0,0.0,0.7,50,0.00,,,0.00,WUHU216HW,2013-11-29 00:11:00,
2013-11-28 18:16:00,33.1,16.9,30.46,North,0,0.0,0.2,51,0.00,,,0.00,WUHU216HW,2013-11-29 00:16:00,
2013-11-28 18:21:00,32.8,16.6,30.46,North,0,0.0,0.2,51,0.00,,,0.00,WUHU216HW,2013-11-29 00:21:00,
2013-11-28 18:26:00,32.6,16.4,30.47,North,0,0.0,0.2,51,0.00,,,0.00,WUHU216HW,2013-11-29 00:26:00,
2013-11-28 18:31:00,32.6,16.4,30.47,ENE,68,0.0,0.2,51,0.00,,,0.00,WUHU216HW,2013-11-29 00:31:00,
2013-11-28 18:36:00,32.4,16.2,30.47,North,0,0.2,0.2,51,0.00,,,0.00,WUHU216HW,2013-11-29 00:36:00,
2013-11-28 18:41:00,32.2,16.5,30.47,NE,45,0.4,0.4,52,0.00,,,0.00,WUHU216HW,2013-11-29 00:41:00,
2013-11-28 18:46:00,32.0,16.4,30.47,North,0,0.0,0.7,52,0.00,,,0.00,WUHU216HW,2013-11-29 00:46:00,
2013-11-28 18:51:00,32.0,16.4,30.47,NNE,23,0.2,0.7,52,0.00,,,0.00,WUHU216HW,2013-11-29 00:51:00,
2013-11-28 18:56:00,31.9,16.2,30.47,NNE,23,0.2,0.4,52,0.00,,,0.00,WUHU216HW,2013-11-29 00:56:00,
2013-11-28 19:01:00,31.7,16.0,30.47,NNE,23,1.8,1.8,52,0.00,,,0.00,WUHU216HW,2013-11-29 01:01:00,
2013-11-28 19:06:00,31.5,15.8,30.47,NNE,23,1.3,2.7,52,0.00,,,0.00,WUHU216HW,2013-11-29 01:06:00,
2013-11-28 19:11:00,31.5,15.8,30.47,NNE,23,2.9,3.6,52,0.00,,,0.00,WUHU216HW,2013-11-29 01:11:00,
2013-11-28 19:16:00,31.1,15.5,30.47,NE,45,2.9,3.6,52,0.00,,,0.00,WUHU216HW,2013-11-29 01:16:00,
2013-11-28 19:21:00,30.8,16.0,30.48,NE,45,3.6,4.0,54,0.00,,,0.00,WUHU216HW,2013-11-29 01:21:00,
2013-11-28 19:26:00,30.6,15.8,30.48,NNE,23,3.6,4.0,54,0.00,,,0.00,WUHU216HW,2013-11-29 01:26:00,
2013-11-28 19:31:00,30.4,15.7,30.48,NNE,23,2.7,4.0,54,0.00,,,0.00,WUHU216HW,2013-11-29 01:31:00,
2013-11-28 19:36:00,30.4,15.7,30.48,NE,45,3.4,4.0,54,0.00,,,0.00,WUHU216HW,2013-11-29 01:36:00,
2013-11-28 19:41:00,30.4,15.7,30.48,NNE,23,1.8,4.0,54,0.00,,,0.00,WUHU216HW,2013-11-29 01:41:00,
2013-11-28 19:46:00,30.2,15.5,30.48,NNE,23,2.0,3.4,54,0.00,,,0.00,WUHU216HW,2013-11-29 01:46:00,
2013-11-28 19:51:00,30.2,15.5,30.49,NNE,23,2.5,3.4,54,0.00,,,0.00,WUHU216HW,2013-11-29 01:51:00,
2013-11-28 19:56:00,30.2,15.9,30.49,NNE,23,0.4,3.1,55,0.00,,,0.00,WUHU216HW,2013-11-29 01:56:00,
2013-11-28 20:01:00,29.9,15.6,30.49,NE,45,3.4,3.4,55,0.00,,,0.00,WUHU216HW,2013-11-29 02:01:00,
2013-11-28 20:06:00,29.7,15.5,30.49,NNE,23,1.8,4.0,55,0.00,,,0.00,WUHU216HW,2013-11-29 02:06:00,
2013-11-28 20:11:00,29.3,15.1,30.49,NNE,23,3.8,4.0,55,0.00,,,0.00,WUHU216HW,2013-11-29 02:11:00,
2013-11-28 20:16:00,29.3,15.1,30.49,NNE,23,3.1,4.0,55,0.00,,,0.00,WUHU216HW,2013-11-29 02:16:00,
2013-11-28 20:21:00,29.2,15.4,30.49,NNE,23,2.5,4.0,56,0.00,,,0.00,WUHU216HW,2013-11-29 02:21:00,
2013-11-28 20:26:00,29.2,15.4,30.49,NNE,23,2.2,4.0,56,0.00,,,0.00,WUHU216HW,2013-11-29 02:26:00,
2013-11-28 20:31:00,29.3,15.6,30.49,NNE,23,2.5,3.6,56,0.00,,,0.00,WUHU216HW,2013-11-29 02:31:00,
2013-11-28 20:36:00,29.5,15.7,30.49,NE,45,2.5,3.4,56,0.00,,,0.00,WUHU216HW,2013-11-29 02:36:00,
2013-11-28 20:41:00,29.3,15.6,30.49,NNE,23,2.0,3.4,56,0.00,,,0.00,WUHU216HW,2013-11-29 02:41:00,
2013-11-28 20:46:00,29.2,15.4,30.49,ENE,68,0.2,2.7,56,0.00,,,0.00,WUHU216HW,2013-11-29 02:46:00,
2013-11-28 20:51:00,29.2,15.4,30.49,NNE,23,2.5,3.1,56,0.00,,,0.00,WUHU216HW,2013-11-29 02:51:00,
2013-11-28 20:56:00,28.8,15.0,30.48,NNE,23,2.0,3.1,56,0.00,,,0.00,WUHU216HW,2013-11-29 02:56:00,
2013-11-28 21:01:00,28.6,15.3,30.48,NNE,23,1.8,2.7,57,0.00,,,0.00,WUHU216HW,2013-11-29 03:01:00,
2013-11-28 21:06:00,28.4,15.1,30.48,NE,45,0.9,2.0,57,0.00,,,0.00,WUHU216HW,2013-11-29 03:06:00,
2013-11-28 21:11:00,28.4,15.1,30.48,NNE,23,0.4,1.8,57,0.00,,,0.00,WUHU216HW,2013-11-29 03:11:00,
2013-11-28 21:16:00,28.3,14.9,30.48,NNE,23,1.3,1.8,57,0.00,,,0.00,WUHU216HW,2013-11-29 03:16:00,
2013-11-28 21:21:00,27.7,14.9,30.48,NNE,23,1.8,1.8,58,0.00,,,0.00,WUHU216HW,2013-11-29 03:21:00,
2013-11-28 21:26:00,27.5,14.7,30.48,NE,45,0.2,1.8,58,0.00,,,0.00,WUHU216HW,2013-11-29 03:26:00,
2013-11-28 21:31:00,27.0,14.9,30.49,East,90,0.0,1.3,60,0.00,,,0.00,WUHU216HW,2013-11-29 03:31:00,
2013-11-28 21:36:00,26.3,14.2,30.49,East,90,0.0,0.2,60,0.00,,,0.00,WUHU216HW,2013-11-29 03:36:00,
2013-11-28 21:41:00,25.9,14.0,30.49,East,90,0.0,0.2,60,0.00,,,0.00,WUHU216HW,2013-11-29 03:41:00,
2013-11-28 21:46:00,25.9,13.5,30.50,East,90,0.0,0.2,59,0.00,,,0.00,WUHU216HW,2013-11-29 03:46:00,
2013-11-28 21:51:00,26.3,13.9,30.50,ENE,68,0.0,0.2,59,0.00,,,0.00,WUHU216HW,2013-11-29 03:51:00,
2013-11-28 21:56:00,26.3,13.9,30.50,NE,45,0.2,0.4,59,0.00,,,0.00,WUHU216HW,2013-11-29 03:56:00,
2013-11-28 22:01:00,26.1,13.7,30.49,NE,45,0.4,0.4,59,0.00,,,0.00,WUHU216HW,2013-11-29 04:01:00,
2013-11-28 22:06:00,25.9,14.0,30.50,NE,45,1.1,1.1,60,0.00,,,0.00,WUHU216HW,2013-11-29 04:06:00,
2013-11-28 22:11:00,25.7,14.1,30.49,ENE,68,1.1,1.1,61,0.00,,,0.00,WUHU216HW,2013-11-29 04:11:00,
2013-11-28 22:16:00,25.6,14.0,30.49,NE,45,1.3,1.8,61,0.00,,,0.00,WUHU216HW,2013-11-29 04:16:00,
2013-11-28 22:21:00,25.4,13.8,30.49,ENE,68,2.0,3.4,61,0.00,,,0.00,WUHU216HW,2013-11-29 04:21:00,
2013-11-28 22:26:00,25.4,13.8,30.49,NNE,23,1.8,3.4,61,0.00,,,0.00,WUHU216HW,2013-11-29 04:26:00,
2013-11-28 22:31:00,25.4,13.8,30.50,ENE,68,1.8,2.9,61,0.00,,,0.00,WUHU216HW,2013-11-29 04:31:00,
2013-11-28 22:36:00,25.4,13.8,30.50,NE,45,1.6,2.9,61,0.00,,,0.00,WUHU216HW,2013-11-29 04:36:00,
2013-11-28 22:41:00,25.2,13.6,30.50,ENE,68,0.9,2.0,61,0.00,,,0.00,WUHU216HW,2013-11-29 04:41:00,
2013-11-28 22:46:00,25.0,14.1,30.50,ENE,68,1.3,2.0,63,0.00,,,0.00,WUHU216HW,2013-11-29 04:46:00,
2013-11-28 22:51:00,24.8,14.0,30.50,NE,45,0.4,1.8,63,0.00,,,0.00,WUHU216HW,2013-11-29 04:51:00,
2013-11-28 22:56:00,24.8,13.7,30.50,ENE,68,0.4,1.3,62,0.00,,,0.00,WUHU216HW,2013-11-29 04:56:00,
2013-11-28 23:01:00,24.8,14.0,30.50,NE,45,0.9,1.3,63,0.00,,,0.00,WUHU216HW,2013-11-29 05:01:00,
2013-11-28 23:06:00,24.8,14.0,30.50,ENE,68,0.4,1.1,63,0.00,,,0.00,WUHU216HW,2013-11-29 05:06:00,
2013-11-28 23:11:00,24.7,13.5,30.50,NNE,23,0.7,2.2,62,0.00,,,0.00,WUHU216HW,2013-11-29 05:11:00,
2013-11-28 23:16:00,24.5,13.7,30.51,NE,45,1.8,2.2,63,0.00,,,0.00,WUHU216HW,2013-11-29 05:16:00,
2013-11-28 23:21:00,24.3,13.5,30.51,ENE,68,0.4,1.8,63,0.00,,,0.00,WUHU216HW,2013-11-29 05:21:00,
2013-11-28 23:26:00,24.3,13.5,30.51,ENE,68,1.1,1.8,63,0.00,,,0.00,WUHU216HW,2013-11-29 05:26:00,
2013-11-28 23:31:00,24.1,13.7,30.51,ENE,68,1.6,2.2,64,0.00,,,0.00,WUHU216HW,2013-11-29 05:31:00,
2013-11-28 23:36:00,24.3,13.8,30.51,East,90,1.1,2.5,64,0.00,,,0.00,WUHU216HW,2013-11-29 05:36:00,
2013-11-28 23:41:00,24.1,14.3,30.51,East,90,0.0,2.5,66,0.00,,,0.00,WUHU216HW,2013-11-29 05:41:00,
2013-11-28 23:46:00,23.4,13.7,30.51,NE,45,0.2,1.1,66,0.00,,,0.00,WUHU216HW,2013-11-29 05:46:00,
2013-11-28 23:51:00,23.4,13.3,30.51,ENE,68,0.4,0.7,65,0.00,,,0.00,WUHU216HW,2013-11-29 05:51:00,
2013-11-28 23:56:00,23.6,13.5,30.51,NE,45,0.0,0.7,65,0.00,,,0.00,WUHU216HW,2013-11-29 05:56:00,